Waarnemingen

Advertentie
Mijn weer
Konstanz, Duitsland (10929): temperatuur & dauwpunt: 18.05.2017 04:00:00 - 24.05.2017 04:00:00 (CEST)Konstanz, Duitsland (10929): temperatuur 5cm & temperatuur -5cm: 18.05.2017 04:00:00 - 24.05.2017 04:00:00 (CEST)Konstanz, Duitsland (10929): temperatuur -20cm & temperatuur -100cm: 18.05.2017 04:00:00 - 24.05.2017 04:00:00 (CEST)Konstanz, Duitsland (10929): windsnelheid & windstoten: 18.05.2017 04:00:00 - 24.05.2017 04:00:00 (CEST)Konstanz, Duitsland (10929): windrichting: 18.05.2017 04:00:00 - 24.05.2017 04:00:00 (CEST)Konstanz, Duitsland (10929): luchtdruk: 18.05.2017 04:00:00 - 24.05.2017 04:00:00 (CEST)Konstanz, Duitsland (10929): zicht: 18.05.2017 04:00:00 - 24.05.2017 04:00:00 (CEST)Konstanz, Duitsland (10929): Zonneschijnduur: 18.05.2017 04:00:00 - 24.05.2017 04:00:00 (CEST)Konstanz, Duitsland (10929): neerslag: 18.05.2017 04:00:00 - 24.05.2017 04:00:00 (CEST)
Datum & Tijd tt [°C] td [°C] tt 5cm [°C] tt -5cm [°C] tt -20cm [°C] tt -100cm [°C] ff [km/u] ff [kn] fx [km/u] fx [kn] dd ppp [hPa] vv [km] sd [min] rr [mm]
24.05.2017 04:00:00 16,8 11,8 16,4 19,4 20,8 15,4 9 5 18 10 NW 1021,5 70 0 0,0
24.05.2017 03:00:00 16,7 13,0 16,6 19,7 21,0 15,4 9 5 16 9 WNW 1021,2 70 0 0,0
24.05.2017 02:00:00 16,7 13,4 16,5 20,0 21,4 15,4 9 5 15 8 WNW 1021,2 70 0 0,0
24.05.2017 01:00:00 16,7 12,4 16,2 20,3 21,7 15,4 7 4 13 7 NW 1021,2 70 0 0,0
24.05.2017 00:00:00 17,1 12,6 15,7 21,0 22,1 15,4 7 4 13 7 WNW 1020,7 70 0 0,0
23.05.2017 23:00:00 17,4 13,0 15,8 21,8 22,5 15,4 6 3 13 7 W 1020,7 70 0 0,0
23.05.2017 22:00:00 18,7 12,0 17,7 22,9 22,8 15,4 10 5 14 8 W 1019,8 70 0 0,0
23.05.2017 21:00:00 19,8 11,4 19,1 24,2 23,1 15,4 10 5 20 11 W 1019,1 80 15 0,0
23.05.2017 20:00:00 20,9 10,7 20,8 25,5 23,3 15,4 14 8 36 20 WNW 1018,9 80 1 0,0
23.05.2017 19:00:00 21,9 11,5 22,4 27,4 23,2 15,3 23 12 45 25 W 1018,3 80 20 0,0
23.05.2017 18:00:00 25,6 8,7 27,9 28,8 22,9 15,3 16 9 31 17 W 1017,0 80 58 0,0
23.05.2017 17:00:00 25,7 9,4 28,5 29,4 22,5 15,3 16 9 32 17 W 1017,1 80 59 0,0
23.05.2017 16:00:00 25,3 9,0 28,9 29,4 21,9 15,3 18 10 31 17 W 1017,1 80 55 0,0
23.05.2017 15:00:00 24,7 9,9 28,5 29,0 21,2 15,3 20 11 32 17 W 1017,1 80 47 0,0
23.05.2017 14:00:00 24,8 9,4 29,4 28,4 20,5 15,3 16 9 31 17 WZW 1017,6 70 55 0,0
23.05.2017 13:00:00 24,2 11,0 28,6 26,8 19,7 15,3 14 8 27 14 W 1017,9 70 54 0,0
23.05.2017 12:00:00 22,9 10,8 26,9 25,0 19,1 15,3 11 6 21 11 W 1018,3 55 59 0,0
23.05.2017 11:00:00 20,7 11,0 24,1 21,8 18,7 15,2 8 4 15 8 WNW 1018,9 55 48 0,0
23.05.2017 10:00:00 17,8 12,3 19,4 19,2 18,6 15,2 2 1 6 3 ZO 1019,4 55 2 0,0
23.05.2017 09:00:00 16,5 11,3 17,4 18,3 18,7 15,2 5 3 8 4 W 1019,3 50 0 0,0
23.05.2017 08:00:00 14,8 11,5 16,5 17,5 18,8 15,2 3 2 6 4 NO 1019,2 40 26 0,0
23.05.2017 07:00:00 13,3 11,4 13,2 16,9 19,1 15,2 3 2 5 3 NNO 1019,0 40 0 0,0
23.05.2017 06:00:00 13,0 10,3 11,7 17,0 19,4 15,2 5 3 7 4 WNW 1018,7 40 0 0,0
23.05.2017 05:00:00 12,8 10,2 10,9 17,5 19,8 15,2 3 2 5 3 W 1018,3 70 0 0,0
23.05.2017 04:00:00 14,0 10,2 11,9 18,2 20,1 15,1 4 2 6 3 W 1017,9 70 0 0,0
23.05.2017 03:00:00 14,3 10,5 12,7 18,5 20,4 15,1 3 2 9 5 WNW 1017,7 70 0 0,0
23.05.2017 02:00:00 15,6 10,8 14,2 19,0 20,8 15,1 8 4 12 6 WNW 1017,2 70 0 0,0
23.05.2017 01:00:00 16,6 10,2 13,9 19,6 21,3 15,1 7 4 11 6 NW 1017,0 70 0 0,0
23.05.2017 00:00:00 16,4 9,8 14,0 20,4 21,7 15,1 4 2 6 4 NW 1016,6 70 0 0,0
22.05.2017 23:00:00 16,7 9,7 14,2 21,5 22,1 15,1 4 2 13 7 NNW 1016,4 70 0 0,0
22.05.2017 22:00:00 18,1 9,1 15,4 22,8 22,5 15,1 5 3 9 5 WNW 1015,8 70 0 0,0
22.05.2017 21:00:00 19,3 8,8 17,2 24,5 22,7 15,1 7 4 11 6 O 1015,1 70 37 0,0
22.05.2017 20:00:00 21,6 8,2 21,8 26,7 22,7 15,1 8 4 11 6 OZO 1014,7 70 60 0,0
22.05.2017 19:00:00 24,8 8,9 25,8 28,3 22,5 15,1 5 3 17 9 OZO 1014,0 70 60 0,0
22.05.2017 18:00:00 25,7 6,8 28,4 29,4 22,0 15,1 6 3 21 12 WNW 1014,2 60 60 0,0
22.05.2017 17:00:00 24,8 6,9 28,4 29,8 21,4 15,1 10 6 23 13 W 1014,9 60 60 0,0
22.05.2017 16:00:00 24,3 7,8 28,9 29,8 20,6 15,1 10 6 20 11 WNW 1015,3 60 60 0,0
22.05.2017 15:00:00 23,0 11,0 29,3 28,8 19,8 15,1 7 4 17 9 O 1016,0 60 60 0,0
22.05.2017 14:00:00 21,7 10,6 27,8 27,5 18,9 15,1 9 5 14 8 O 1016,7 50 60 0,0
22.05.2017 13:00:00 20,1 10,2 26,7 25,6 18,0 15,1 8 4 16 9 O 1017,7 45 60 0,0
22.05.2017 12:00:00 18,8 10,0 23,4 23,1 17,3 15,1 8 4 13 7 OZO 1018,3 40 60 0,0
22.05.2017 11:00:00 16,8 9,1 21,0 20,2 16,9 15,1 6 4 13 7 O 1019,0 40 60 0,0
22.05.2017 10:00:00 15,2 9,0 17,9 16,9 16,8 15,0 8 4 14 8 O 1019,4 35 60 0,0
22.05.2017 09:00:00 14,9 9,4 13,5 14,8 16,9 15,0 5 3 9 5 O 1019,5 35 60 0,0
22.05.2017 08:00:00 13,0 9,2 13,8 14,9 17,1 15,0 4 2 9 5 WNW 1019,8 30 60 0,0
22.05.2017 07:00:00 10,4 9,0 8,8 14,3 17,4 15,0 4 2 8 4 NW 1020,2 35 54 0,0
22.05.2017 06:00:00 9,6 7,7 7,7 14,5 17,8 15,0 4 2 9 5 NW 1020,1 35 0 0,0
22.05.2017 05:00:00 10,6 8,1 9,2 15,0 18,1 15,0 6 4 9 5 NW 1019,6 55 0 0,0
22.05.2017 04:00:00 10,6 8,1 8,2 15,6 18,5 15,0 6 3 8 4 N 1019,9 59 0 0,0
22.05.2017 03:00:00 11,0 8,1 8,7 16,2 18,9 15,0 5 3 8 4 N 1020,1 67 0 0,0
22.05.2017 02:00:00 12,4 8,5 9,8 16,9 19,3 15,0 5 3 8 4 NNO 1020,1 70 0 0,0
22.05.2017 01:00:00 13,0 8,2 10,0 17,6 19,7 15,0 6 3 12 6 ONO 1020,7 70 0 0,0
22.05.2017 00:00:00 14,1 8,0 11,3 18,5 20,1 15,0 7 4 15 8 ONO 1020,9 70 0 0,0
21.05.2017 23:00:00 14,8 7,9 12,7 19,5 20,5 15,0 5 3 14 8 N 1021,1 70 0 0,0
21.05.2017 22:00:00 15,9 8,0 12,8 20,8 20,8 15,0 5 3 16 8 N 1021,1 70 0 0,0
21.05.2017 21:00:00 17,3 8,0 16,4 22,3 21,0 15,0 7 4 19 10 NNO 1020,7 50 0 0,0
21.05.2017 20:00:00 18,6 7,3 18,8 24,0 21,0 15,0 10 5 21 12 NO 1020,7 60 21 0,0
21.05.2017 19:00:00 20,1 7,1 22,5 25,4 20,9 15,0 9 5 24 13 ONO 1020,5 65 60 0,0
21.05.2017 18:00:00 20,3 7,3 23,9 26,2 20,5 15,0 11 6 26 14 ONO 1020,9 65 59 0,0
21.05.2017 17:00:00 20,4 7,4 23,5 26,2 20,1 15,0 11 6 31 17 NO 1021,4 70 35 0,0
21.05.2017 16:00:00 21,2 7,4 27,0 26,2 19,5 15,0 13 7 32 18 ONO 1021,8 65 32 0,0
21.05.2017 15:00:00 19,5 6,0 23,6 26,7 18,8 15,0 11 6 26 14 ONO 1022,6 65 37 0,0
21.05.2017 14:00:00 19,8 5,6 25,7 25,8 18,0 15,0 16 9 30 16 ONO 1023,0 60 59 0,0
21.05.2017 13:00:00 19,5 6,2 24,8 24,1 17,2 15,0 13 7 32 18 NO 1023,6 50 60 0,0
21.05.2017 12:00:00 18,6 6,9 22,9 21,8 16,5 15,0 12 7 29 16 ONO 1024,2 50 58 0,0
21.05.2017 11:00:00 17,3 7,3 21,4 19,3 16,1 15,0 10 6 24 13 NO 1024,6 50 60 0,0
21.05.2017 10:00:00 16,3 7,6 18,0 15,9 16,0 15,0 10 5 19 10 ONO 1025,2 50 60 0,0
21.05.2017 09:00:00 13,9 6,8 13,1 13,8 16,1 15,0 9 5 16 9 NNO 1025,8 50 60 0,0
21.05.2017 08:00:00 11,5 6,5 12,0 13,9 16,3 15,0 7 4 16 9 NNO 1026,4 50 60 0,0
21.05.2017 07:00:00 9,9 6,6 9,0 13,4 16,6 15,0 6 3 14 7 N 1026,7 45 54 0,0
21.05.2017 06:00:00 8,9 6,6 7,5 13,7 17,0 15,0 6 3 16 8 N 1026,8 40 0 0,0
21.05.2017 05:00:00 8,8 6,8 7,7 14,2 17,3 15,0 7 4 14 8 N 1026,8 70 0 0,0
21.05.2017 04:00:00 9,5 7,0 8,5 14,8 17,7 15,0 10 5 18 10 NNO 1027,0 70 0 0,0
21.05.2017 03:00:00 10,1 7,0 8,7 15,6 18,0 15,0 7 4 12 6 N 1026,9 70 0 0,0
21.05.2017 02:00:00 11,1 6,7 10,7 16,2 18,3 15,0 5 3 11 6 NNO 1027,0 70 0 0,0
21.05.2017 01:00:00 11,0 7,1 9,2 17,0 18,6 15,0 6 3 13 7 NNO 1026,8 70 0 0,0
21.05.2017 00:00:00 13,0 8,2 12,9 17,8 18,9 15,0 6 3 12 7 NNO 1026,1 70 0 0,0
20.05.2017 23:00:00 13,9 7,4 13,6 18,4 19,1 15,0 4 2 6 3 NNW 1025,8 70 0 0,0
20.05.2017 22:00:00 13,9 8,2 13,4 19,0 19,4 15,1 2 1 8 4 O 1025,3 70 0 0,0
20.05.2017 21:00:00 14,5 7,0 14,4 19,9 19,7 15,1 5 3 8 4 OZO 1024,7 50 0 0,0
20.05.2017 20:00:00 14,9 7,2 15,3 21,0 19,8 15,1 5 3 13 7 O 1024,1 50 2 0,0
20.05.2017 19:00:00 15,8 6,7 16,5 22,2 19,9 15,1 5 3 14 8 N 1023,4 45 0 0,0
20.05.2017 18:00:00 16,2 5,7 17,3 24,0 19,7 15,1 8 4 13 7 NNO 1023,1 45 3 0,0
20.05.2017 17:00:00 16,9 4,6 19,7 26,1 19,1 15,1 5 3 24 13 ONO 1022,5 45 39 0,0
20.05.2017 16:00:00 19,0 7,0 25,7 26,3 18,3 15,1 12 7 23 12 NNO 1021,6 45 55 0,0
20.05.2017 15:00:00 17,8 4,0 24,3 25,4 17,5 15,1 11 6 25 14 W 1021,7 45 56 0,0
20.05.2017 14:00:00 16,3 6,0 21,0 23,7 16,8 15,1 8 5 21 11 O 1022,1 45 51 0,0
20.05.2017 13:00:00 15,6 4,0 18,7 22,4 16,0 15,1 7 4 18 10 WNW 1022,4 50 57 0,0
20.05.2017 12:00:00 14,8 4,2 19,4 20,6 15,3 15,1 9 5 19 10 W 1022,5 45 60 0,0
20.05.2017 11:00:00 13,3 5,8 16,8 17,7 14,8 15,1 8 4 13 7 WNW 1022,5 45 60 0,0
20.05.2017 10:00:00 11,5 6,4 14,5 14,7 14,5 15,1 6 4 13 7 W 1023,0 40 60 0,0
20.05.2017 09:00:00 9,6 6,4 10,6 13,0 14,5 15,1 5 3 9 5 W 1023,0 35 49 0,0
20.05.2017 08:00:00 6,8 5,8 7,7 11,9 14,6 15,1 4 2 12 7 NNW 1023,1 8 10 0,0
20.05.2017 07:00:00 6,2 6,1 6,5 11,3 14,7 15,1 6 3 8 5 W 1022,6 3,0 0 0,0
20.05.2017 06:00:00 5,9 5,9 6,0 10,9 15,0 15,1 5 3 9 5 WZW 1022,0 2,0 0 0,0
20.05.2017 05:00:00 5,4 5,0 3,9 10,9 15,3 15,1 5 3 10 5 NNW 1021,7 23 0 0,0
20.05.2017 04:00:00 5,3 5,0 3,5 11,2 15,6 15,1 6 3 9 5 N 1022,1 48 0 0,0
20.05.2017 03:00:00 5,7 4,9 3,9 11,6 15,9 15,1 6 3 8 4 W 1021,8 70 0 0,0
20.05.2017 02:00:00 5,6 4,5 4,5 12,1 16,2 15,0 4 2 6 3 NNO 1021,8 70 0 0,0
20.05.2017 01:00:00 6,3 4,9 4,3 12,6 16,6 15,0 4 2 6 3 WNW 1021,8 70 0 0,0
20.05.2017 00:00:00 6,5 4,9 5,0 13,1 16,9 15,0 4 2 5 3 NW 1021,6 70 0 0,0
19.05.2017 23:00:00 6,8 5,0 5,2 13,7 17,2 15,0 3 2 11 6 NO 1021,5 70 0 0,0
19.05.2017 22:00:00 8,4 4,9 7,2 14,4 17,5 15,0 7 4 17 9 W 1020,8 70 0 0,0
19.05.2017 21:00:00 8,5 4,7 8,4 15,0 17,8 15,0 11 6 24 13 WZW 1020,5 70 0 0,0
19.05.2017 20:00:00 8,8 4,8 9,2 15,7 18,0 15,0 13 7 33 18 WZW 1020,0 70 1 0,0
19.05.2017 19:00:00 9,0 4,8 9,5 16,2 18,2 14,9 18 10 39 21 WZW 1019,1 70 0 0,0
19.05.2017 18:00:00 10,0 6,1 10,8 16,7 18,4 14,9 22 12 44 24 WZW 1018,5 70 0 0,0
19.05.2017 17:00:00 10,6 5,6 11,2 17,2 18,6 14,9 23 12 51 28 W 1017,3 70 0 0,0
19.05.2017 16:00:00 11,3 6,0 12,2 17,2 18,8 14,9 29 16 54 29 WZW 1015,8 70 0 0,0
19.05.2017 15:00:00 11,8 6,9 12,5 17,5 19,0 14,9 26 14 49 27 W 1014,9 70 0 0,0
19.05.2017 14:00:00 11,6 8,2 12,1 18,1 19,2 14,8 22 12 44 24 W 1013,6 70 0 0,0
19.05.2017 13:00:00 12,6 8,8 13,6 18,7 19,3 14,8 23 12 45 24 W 1012,2 70 0 0,0
19.05.2017 12:00:00 13,6 10,1 14,3 19,3 19,3 14,8 17 9 31 17 W 1011,1 70 0 0,0
19.05.2017 11:00:00 14,7 11,7 16,0 19,6 19,3 14,8 16 9 26 14 W 1010,3 70 0 0,0
19.05.2017 10:00:00 15,8 12,5 16,6 19,1 19,4 14,8 13 7 27 15 WZW 1009,7 70 0 0,0
19.05.2017 09:00:00 17,0 13,2 17,6 19,0 19,4 14,7 8 5 16 9 W 1009,5 56 0 0,0
19.05.2017 08:00:00 16,8 13,4 17,0 18,6 19,6 14,7 6 4 10 5 WZW 1009,6 54 0 0,0
19.05.2017 07:00:00 16,3 13,7 16,0 18,3 19,8 14,7 2 1 8 5 WZW 1009,3 51 0 0,0
19.05.2017 06:00:00 15,6 13,5 15,0 18,2 20,1 14,7 7 4 12 7 NW 1009,0 46 0 0,0
19.05.2017 05:00:00 15,6 13,5 14,7 18,5 20,4 14,6 8 4 19 10 NW 1009,0 42 0 0,0
19.05.2017 04:00:00 16,0 14,0 15,4 19,0 20,7 14,6 8 5 16 9 WNW 1008,8 40 0 0,0
19.05.2017 03:00:00 15,8 14,0 14,8 19,4 21,0 14,6 8 5 12 7 W 1009,0 39 0 0,0
19.05.2017 02:00:00 16,6 14,3 15,7 20,0 21,4 14,6 8 4 13 7 WNW 1008,6 47 0 0,0
19.05.2017 01:00:00 17,2 14,5 16,3 20,6 21,7 14,6 8 5 15 8 WNW 1008,8 53 0 0,0
19.05.2017 00:00:00 17,8 13,8 17,0 21,3 22,1 14,5 8 4 13 7 WNW 1008,9 46 0 0,0
18.05.2017 23:00:00 18,3 13,5 16,7 22,0 22,5 14,5 4 2 8 5 NW 1009,1 70 0 0,0
18.05.2017 22:00:00 19,4 13,6 17,7 23,1 22,8 14,5 6 3 10 5 N 1009,1 70 0 0,0
18.05.2017 21:00:00 20,7 13,3 19,8 24,4 23,0 14,5 4 2 20 11 N 1008,9 70 0 0,0
18.05.2017 20:00:00 22,2 13,6 22,7 25,6 23,1 14,5 9 5 20 11 NNO 1009,0 70 2 0,0
18.05.2017 19:00:00 23,5 13,2 24,2 26,8 23,0 14,4 7 4 12 7 N 1009,2 70 28 0,0
18.05.2017 18:00:00 24,9 11,6 26,4 27,3 23,0 14,4 5 3 10 5 NNW 1009,6 70 6 0,0
18.05.2017 17:00:00 24,2 12,3 25,3 27,9 22,8 14,4 5 3 9 5 ZZW 1010,5 70 0 0,0
18.05.2017 16:00:00 24,7 10,6 26,3 29,5 22,2 14,4 4 2 13 7 NNO 1011,0 70 29 0,0
18.05.2017 15:00:00 26,1 11,9 32,7 30,1 21,5 14,4 6 3 16 8 O 1011,2 61 53 0,0
18.05.2017 14:00:00 25,3 12,5 30,9 29,2 20,7 14,3 6 4 16 9 NNO 1011,9 54 60 0,0
18.05.2017 13:00:00 25,0 12,9 28,7 27,3 19,9 14,3 8 4 21 11 N 1012,7 58 60 0,0
18.05.2017 12:00:00 23,2 12,4 26,8 25,3 19,3 14,3 10 6 21 12 W 1013,6 60 60 0,0
18.05.2017 11:00:00 21,7 11,9 24,4 22,4 19,0 14,3 10 5 26 14 WZW 1014,3 52 51 0,0
18.05.2017 10:00:00 20,4 12,0 22,1 19,9 18,9 14,2 14 8 27 15 W 1014,7 54 34 0,0
18.05.2017 09:00:00 18,1 12,4 18,8 18,5 19,0 14,2 5 3 7 4 ZZW 1015,0 45 15 0,0
18.05.2017 08:00:00 15,5 11,6 15,2 17,8 19,1 14,2 4 2 9 5 Z 1015,3 53 0 0,0
18.05.2017 07:00:00 15,0 10,4 15,1 17,7 19,4 14,2 5 3 8 5 NW 1014,7 65 0 0,0
18.05.2017 06:00:00 14,4 10,5 14,3 17,6 19,7 14,1 5 3 8 4 NNW 1014,5 65 0 0,0
18.05.2017 05:00:00 13,9 10,1 13,0 17,7 20,1 14,1 5 3 6 4 NW 1014,6 70 0 0,0
18.05.2017 04:00:00 14,8 10,4 12,6 18,2 20,4 14,1 6 3 11 6 WNW 1014,4 70 0 0,0

tt = temperatuur
td = dauwpunt
tt 5cm = temperatuur 5cm
tt -5cm = temperatuur -5cm
tt -20cm = temperatuur -20cm
tt -100cm = temperatuur -100cm
ff = windsnelheid
fx = windstoten
dd = windrichting
ppp = luchtdruk
vv = zicht
sd = Zonneschijnduur
rr = neerslag

Weerstations in de omgeving